[[{"header":{"parameterUnit":"m.s-1","parameterCategory":1,"la1":30.2991,"la2":30.254,"lo1":-89.0895,"lo2":-89.0444,"dy":0.0017,"dx":0.0017,"nx":28,"ny":28,"refTime":"2023-10-26T03:00:00:Z","depth":0,"parameterNumber":2,"parameterNumberName":"U-component_of_WINDS"},"data":[0,0,0,0,0,0,0,0,0,0,0,0,0,0,0,0,0,0,0,0,0,0,0,0,0,0,0,0,0,0,0,0,0,0,0,0,0,0,0,0,0,0,0,0,0,0,0,0,0,0,0,0,0,0,0,0,0,0,-3.0827,-3.0827,0,-3.0836,-3.0836,-3.0836,-3.0772,-3.077,-3.0768,-3.0766,-3.0778,-3.078,-3.0782,0,0,0,0,0,0,0,0,0,0,0,0,0,-3.0759,-3.076,-3.0827,-3.0827,-3.0827,-3.0836,-3.0836,-3.0836,-3.0772,-3.077,-3.0768,-3.0766,-3.0777,-3.0779,-3.0782,0,0,0,0,0,0,0,0,0,0,0,0,0,-3.078,-3.0761,-3.0827,-3.0796,-3.0793,-3.0836,-3.0836,-3.0836,-3.0773,-3.077,-3.0767,-3.0765,-3.0776,-3.0779,-3.0782,-3.0855,0,0,-3.0791,-3.0793,0,0,0,0,0,0,0,0,-3.0779,-3.0783,-3.0801,-3.0798,-3.0795,-3.08,-3.0816,-3.0843,-3.0773,-3.0781,-3.0766,-3.0763,-3.0788,-3.0789,-3.0797,-3.0856,-3.0856,-3.0792,-3.0793,-3.0795,-3.0796,0,0,0,0,0,0,0,-3.0778,-3.0782,-3.083,-3.0801,-3.0798,-3.0783,-3.0783,-3.0821,-3.0799,-3.078,-3.0775,-3.0777,-3.0786,-3.0794,-3.0797,-3.0856,-3.0792,-3.0794,-3.0796,-3.0797,-3.0978,-3.0981,0,0,0,0,0,0,-3.078,-3.0781,-3.083,-3.0831,-3.078,-3.0787,-3.0787,-3.0801,-3.0799,-3.0796,-3.0779,-3.0774,-3.0791,-3.0793,-3.0797,-3.0883,-3.0795,-3.0798,-3.0799,-3.0975,-3.0979,-3.0982,0,0,0,0,0,0,-3.0779,-3.0785,-3.083,-3.0805,-3.0809,-3.0791,-3.0808,-3.0803,-3.0811,-3.0798,-3.0794,-3.0792,-3.0789,-3.0793,-3.0842,-3.0883,-3.0799,-3.0802,-3.0972,-3.0977,-3.0981,-3.1056,0,0,0,0,0,0,-3.0777,-3.0785,-3.0811,-3.0806,-3.0811,-3.0873,-3.081,-3.0805,-3.0816,-3.081,-3.0809,-3.0806,-3.0787,-3.0838,-3.0845,-3.0885,-3.0804,-3.0968,-3.0974,-3.0979,-3.1049,-3.1062,-3.1073,0,0,0,0,0,-3.0775,-3.0831,-3.0812,-3.0819,-3.0843,-3.0875,-3.0878,-3.0854,-3.082,-3.0847,-3.0839,-3.0806,-3.0878,-3.0843,-3.0851,-3.0893,-3.0965,-3.0972,-3.0979,-3.1044,-3.106,-3.1073,0,0,0,0,0,0,-3.0841,-3.083,-3.0809,-3.0865,-3.0872,-3.0864,-3.0897,-3.0871,-3.0887,-3.088,-3.0851,-3.0851,-3.0905,-3.0904,-3.0866,-3.0965,-3.0916,-3.0924,-3.0963,-3.0977,-3.0989,-3.0987,-3.0806,0,0,0,0,0,-3.0863,-3.0889,-3.0878,-3.0929,-3.0934,-3.0915,-3.0928,-3.091,-3.0915,-3.0918,-3.0913,-3.0921,-3.0945,-3.0962,-3.0983,-3.105,-3.105,-3.1083,-3.1095,-3.1105,-3.1112,-3.1149,-3.1164,-3.1005,-3.1005,-3.1004,0,0,-3.0907,-3.0904,-3.0922,-3.0943,-3.0945,-3.0974,-3.0918,-3.095,-3.0972,-3.0923,-3.0968,-3.0966,-3.0973,-3.1032,-3.1057,-3.1032,-3.1157,-3.1114,-3.1121,-3.1123,-3.1158,-3.1173,-3.1187,-3.1009,-3.1008,-3.1008,0,0,-3.1001,-3.1002,-3.1045,-3.105,-3.1055,-3.1043,-3.1054,-3.1051,-3.1048,-3.1093,-3.1058,-3.1085,-3.1126,-3.1133,-3.1142,-3.1245,-3.1216,-3.1254,-3.1315,-3.1351,-3.1364,-3.1375,-3.1412,-3.1426,-3.1261,-3.1262,-3.1262,0,-3.1055,-3.1096,-3.1071,-3.1106,-3.1117,-3.1075,-3.112,-3.1126,-3.1139,-3.1148,-3.112,-3.1174,-3.1176,-3.1236,-3.1262,-3.127,-3.1283,-3.1252,-3.1364,-3.1375,-3.1385,-3.142,-3.1434,-3.1266,-3.1265,-3.1265,-3.1265,0,-3.1163,-3.1193,-3.1227,-3.124,-3.1256,-3.1296,-3.1278,-3.1297,-3.1279,-3.127,-3.1319,-3.1321,-3.1342,-3.1356,-3.1338,-3.1415,-3.14,-3.1369,-3.1318,-3.1405,-3.1437,-3.145,-3.1272,-3.1271,-3.1269,-3.1268,0,0,-3.1296,-3.1297,-3.131,-3.1317,-3.1322,-3.1344,-3.1385,-3.1406,-3.1423,-3.1435,-3.1468,-3.1507,-3.148,-3.149,-3.1473,-3.1506,-3.1588,-3.1471,-3.1471,-3.1492,-3.1675,-3.1697,-3.1713,-3.157,-3.1573,-3.1575,-3.1675,0,-3.1388,-3.1454,-3.1434,-3.1501,-3.153,-3.1493,-3.1528,-3.1536,-3.1531,-3.1555,-3.155,-3.1578,-3.1539,-3.1545,-3.1576,-3.1572,-3.1624,-3.1565,-3.1602,-3.1603,-3.1599,-3.173,-3.1753,-3.1846,-3.1687,-3.1689,-3.1691,0,-3.1503,-3.152,-3.159,-3.1592,-3.1604,-3.1635,-3.1655,-3.1678,-3.1688,-3.1683,-3.1697,-3.1674,-3.1716,-3.1668,-3.1725,-3.1685,-3.17,-3.1701,-3.1704,-3.1705,-3.1651,-3.1734,-3.1876,-3.189,-3.171,-3.1709,-3.1707,0,-3.1593,-3.1633,-3.168,-3.1687,-3.1692,-3.1715,-3.1718,-3.1725,-3.1741,-3.1759,-3.1769,-3.1793,-3.1805,-3.1825,-3.181,-3.1776,-3.1871,-3.1821,-3.1868,-3.1869,-3.1887,-3.1886,-3.2033,-3.19,-3.19,-3.1899,-3.1899,0,-3.1697,-3.1741,-3.1721,-3.175,-3.18,-3.1778,-3.1829,-3.1828,-3.1836,-3.1865,-3.1836,-3.1865,-3.1845,-3.1873,-3.1862,-3.1913,-3.1919,-3.1916,-3.1912,-3.1918,-3.1918,-3.1926,-3.1918,-3.1903,-3.1902,-3.1901,-3.1901,0,-3.1804,-3.1792,-3.1841,-3.1843,-3.1844,-3.1881,-3.1883,-3.1911,-3.1905,-3.1944,-3.1952,-3.1943,-3.1975,-3.1963,-3.1997,-3.1991,-3.2055,-3.2043,-3.2051,-3.2048,-3.2095,-3.2091,-3.225,-3.2271,-3.2126,-3.2127,-3.2128,0,-3.187,-3.1903,-3.1909,-3.1926,-3.1932,-3.1961,-3.1977,-3.1959,-3.1977,-3.1993,-3.202,-3.2049,-3.2071,-3.2125,-3.2122,-3.2149,-3.2138,-3.2192,-3.2141,-3.2147,-3.2138,-3.2136,-3.214,-3.2201,-3.2203,-3.2204,-3.2206,0,-3.1989,-3.1982,-3.2005,-3.2028,-3.2048,-3.2065,-3.208,-3.2097,-3.208,-3.2102,-3.2134,-3.2152,-3.2188,-3.2218,-3.2243,-3.2248,-3.2225,-3.2222,-3.2234,-3.2239,-3.2242,-3.2241,-3.2077,-3.2218,-3.2217,-3.2216,-3.2215,-3.2215,-3.2076,-3.2105,-3.2114,-3.2142,-3.2152,-3.2167,-3.2194,-3.2193,-3.2219,-3.2246,-3.2235,-3.2273,-3.2286,-3.2317,-3.2326,-3.2357,-3.2336,-3.2353,-3.2358,-3.2362,-3.2368,-3.2239,-3.2362,-3.2361,-3.2361,-3.2361,-3.236,0,-3.2193,-3.2198,-3.2225,-3.2246,-3.227,-3.2246,-3.2263,-3.2284,-3.2317,-3.233,-3.2354,-3.2393,-3.2423,-3.2425,-3.2454,-3.2478,-3.2469,-3.2486,-3.2484,-3.2486,-3.2385,-3.2371,-3.2494,-3.2494,-3.2494,-3.2494,-3.2494,-3.2494,-3.2257,-3.2304,-3.23,-3.2354,-3.2358,-3.2395,-3.2406,-3.2421,-3.2432,-3.2476,-3.2501,-3.2502,-3.2512,-3.2542,-3.257,-3.257,-3.2582,-3.2604,-3.26,-3.2506,-3.2492,-3.248,-3.2466,-3.2607,-3.2607,-3.2698,-3.2699,-3.2699]},{"header":{"parameterUnit":"m.s-1","parameterCategory":1,"la1":30.2991,"la2":30.254,"lo1":-89.0895,"lo2":-89.0444,"dy":0.0017,"dx":0.0017,"nx":28,"ny":28,"refTime":"2023-10-26T03:00:00:Z","depth":0,"parameterNumber":3,"parameterNumberName":"V-component_of_WINDS"},"data":[0,0,0,0,0,0,0,0,0,0,0,0,0,0,0,0,0,0,0,0,0,0,0,0,0,0,0,0,0,0,0,0,0,0,0,0,0,0,0,0,0,0,0,0,0,0,0,0,0,0,0,0,0,0,0,0,0,0,1.1272,1.1272,0,1.1276,1.1276,1.1276,1.1284,1.1284,1.1284,1.1284,1.1285,1.1285,1.1285,0,0,0,0,0,0,0,0,0,0,0,0,0,1.1268,1.1268,1.1272,1.1272,1.1272,1.1276,1.1276,1.1276,1.1284,1.1284,1.1284,1.1284,1.1285,1.1285,1.1285,0,0,0,0,0,0,0,0,0,0,0,0,0,1.127,1.1268,1.1272,1.1276,1.1277,1.1276,1.1276,1.1276,1.1284,1.1284,1.1284,1.1284,1.1285,1.1285,1.1285,1.1279,0,0,1.1284,1.1284,0,0,0,0,0,0,0,0,1.127,1.127,1.1276,1.1276,1.1276,1.128,1.1275,1.1277,1.1284,1.1281,1.1284,1.1284,1.1283,1.1283,1.1283,1.1279,1.1279,1.1284,1.1284,1.1284,1.1284,0,0,0,0,0,0,0,1.127,1.127,1.1273,1.1276,1.1276,1.1277,1.1278,1.1275,1.128,1.1281,1.1282,1.1282,1.1283,1.1283,1.1283,1.1279,1.1284,1.1284,1.1284,1.1284,1.1272,1.1272,0,0,0,0,0,0,1.127,1.127,1.1273,1.1274,1.1274,1.1277,1.1278,1.1278,1.128,1.1281,1.1282,1.1283,1.1283,1.1283,1.1283,1.1278,1.1284,1.1284,1.1283,1.1272,1.1272,1.1272,0,0,0,0,0,0,1.1269,1.127,1.1273,1.1272,1.1273,1.1277,1.1278,1.1278,1.1279,1.1281,1.1282,1.1282,1.1283,1.1283,1.1281,1.1278,1.1283,1.1283,1.1273,1.1272,1.1272,1.1266,0,0,0,0,0,0,1.1269,1.127,1.1268,1.1272,1.1273,1.1271,1.1277,1.1278,1.1279,1.1279,1.1281,1.1281,1.1284,1.1281,1.128,1.1278,1.1283,1.1273,1.1272,1.1272,1.1266,1.1266,1.1265,0,0,0,0,0,1.1269,1.1265,1.1268,1.1268,1.1271,1.1271,1.1271,1.1275,1.1278,1.1277,1.1279,1.1281,1.1278,1.128,1.128,1.1277,1.1273,1.1273,1.1272,1.1267,1.1266,1.1265,0,0,0,0,0,0,1.1258,1.1265,1.1269,1.1266,1.1268,1.1272,1.127,1.1274,1.1274,1.1274,1.1278,1.1278,1.1275,1.1276,1.1278,1.1273,1.1276,1.1276,1.1272,1.1271,1.127,1.127,1.1283,0,0,0,0,0,1.1256,1.1257,1.1262,1.1259,1.126,1.1265,1.1265,1.1268,1.127,1.1271,1.1272,1.1273,1.1273,1.1272,1.1271,1.1267,1.1268,1.1265,1.1264,1.1263,1.1263,1.1261,1.126,1.127,1.127,1.127,0,0,1.125,1.1254,1.1254,1.1257,1.1259,1.1259,1.1266,1.1265,1.1265,1.127,1.1268,1.127,1.1271,1.1268,1.1266,1.1268,1.126,1.1263,1.1262,1.1262,1.1261,1.126,1.1259,1.127,1.127,1.127,0,0,1.124,1.1243,1.1242,1.1245,1.1248,1.1252,1.1252,1.1256,1.1258,1.1256,1.1261,1.126,1.1259,1.126,1.126,1.1253,1.1256,1.1253,1.1248,1.1247,1.1246,1.1246,1.1244,1.1243,1.1252,1.1252,1.1252,0,1.1233,1.1234,1.124,1.124,1.1242,1.1249,1.1247,1.1249,1.1252,1.1252,1.1255,1.1254,1.1255,1.1253,1.1252,1.1252,1.1251,1.1253,1.1246,1.1246,1.1245,1.1243,1.1243,1.1252,1.1252,1.1252,1.1252,0,1.1225,1.1226,1.1224,1.1229,1.123,1.1229,1.1235,1.1235,1.1239,1.1242,1.1241,1.1243,1.1244,1.1243,1.1246,1.1242,1.1243,1.1246,1.1249,1.1244,1.1242,1.1242,1.1252,1.1252,1.1252,1.1252,0,0,1.1206,1.1217,1.1216,1.1219,1.1225,1.1225,1.1225,1.1228,1.1228,1.123,1.123,1.123,1.1233,1.1234,1.1236,1.1235,1.1231,1.1238,1.1239,1.1237,1.1228,1.1226,1.1225,1.1233,1.1233,1.1233,1.1228,0,1.1198,1.1199,1.1206,1.1205,1.1206,1.1214,1.1214,1.1217,1.122,1.1221,1.1225,1.1225,1.1229,1.1229,1.1229,1.1232,1.1229,1.1232,1.1233,1.1233,1.1232,1.1224,1.1222,1.1217,1.1227,1.1227,1.1227,0,1.1188,1.1192,1.1192,1.1199,1.12,1.12,1.1204,1.1205,1.1209,1.1211,1.1213,1.1217,1.1217,1.1221,1.1221,1.1223,1.1224,1.1225,1.1225,1.1225,1.1229,1.1224,1.1215,1.1214,1.1226,1.1226,1.1226,0,1.1176,1.1181,1.1182,1.1184,1.1192,1.1193,1.1196,1.12,1.1202,1.1205,1.1206,1.1208,1.1209,1.1211,1.1215,1.1218,1.1215,1.1219,1.1217,1.1217,1.1216,1.1216,1.1207,1.1216,1.1216,1.1216,1.1216,0,1.1165,1.1165,1.1177,1.1177,1.1177,1.1185,1.1185,1.1188,1.1193,1.1194,1.12,1.1201,1.1207,1.1208,1.1211,1.1212,1.1212,1.1214,1.1214,1.1213,1.1213,1.1213,1.1214,1.1216,1.1216,1.1216,1.1216,0,1.1151,1.1159,1.1161,1.117,1.1172,1.1172,1.1179,1.118,1.1185,1.1186,1.1187,1.1194,1.1196,1.1201,1.1203,1.1206,1.1205,1.1206,1.1204,1.1205,1.1203,1.1203,1.1194,1.1193,1.1202,1.1202,1.1202,0,1.1145,1.1145,1.1155,1.1157,1.1161,1.1164,1.1166,1.1174,1.1176,1.1182,1.1182,1.1185,1.1188,1.1191,1.1195,1.1198,1.12,1.1196,1.12,1.1199,1.12,1.12,1.1201,1.1195,1.1195,1.1195,1.1195,0,1.1132,1.1136,1.114,1.1146,1.1149,1.1154,1.1159,1.116,1.1168,1.117,1.1174,1.1176,1.1181,1.1183,1.1187,1.119,1.1194,1.1194,1.1194,1.1192,1.1191,1.1193,1.1202,1.1194,1.1194,1.1194,1.1194,1.1194,1.1121,1.1123,1.1131,1.1135,1.114,1.1145,1.1147,1.1153,1.1156,1.1161,1.1165,1.1168,1.1174,1.1179,1.1182,1.1184,1.1186,1.1185,1.1185,1.1185,1.1185,1.1191,1.1184,1.1185,1.1185,1.1185,1.1185,0,1.1109,1.1115,1.112,1.1127,1.1131,1.1137,1.1143,1.1145,1.1149,1.1154,1.1157,1.1162,1.1165,1.1171,1.1175,1.1175,1.1177,1.1176,1.1176,1.1177,1.1182,1.1183,1.1174,1.1174,1.1174,1.1174,1.1174,1.1174,1.1103,1.1107,1.1112,1.1118,1.1124,1.1128,1.1131,1.1136,1.114,1.1145,1.1149,1.1153,1.1159,1.1164,1.1167,1.1168,1.117,1.1168,1.117,1.1175,1.1176,1.1177,1.1177,1.1168,1.1168,1.1164,1.1164,1.1164]}]]